Year,Month,Day,Hour,Minute,Value (Times are PST for temperature in C)
2008,07,16,00,00,18.00
2008,07,16,00,01,18.00
2008,07,16,00,02,17.90
2008,07,16,00,03,17.90
2008,07,16,00,04,17.90
2008,07,16,00,05,17.80
2008,07,16,00,06,17.80
2008,07,16,00,07,17.80
2008,07,16,00,08,17.80
2008,07,16,00,09,17.80
2008,07,16,00,10,17.80
2008,07,16,00,11,17.70
2008,07,16,00,12,17.70
2008,07,16,00,13,17.70
2008,07,16,00,14,17.70
2008,07,16,00,15,17.70
2008,07,16,00,16,17.70
2008,07,16,00,17,17.70
2008,07,16,00,18,17.70
2008,07,16,00,19,17.70
2008,07,16,00,20,17.70
2008,07,16,00,21,17.70
2008,07,16,00,22,17.70
2008,07,16,00,23,17.70
2008,07,16,00,24,17.70
2008,07,16,00,25,17.70
2008,07,16,00,26,17.70
2008,07,16,00,27,17.70
2008,07,16,00,28,17.70
2008,07,16,00,29,17.70
2008,07,16,00,30,17.70
2008,07,16,00,31,17.70
2008,07,16,00,32,17.70
2008,07,16,00,33,17.70
2008,07,16,00,34,17.70
2008,07,16,00,35,17.70
2008,07,16,00,36,17.70
2008,07,16,00,37,17.70
2008,07,16,00,38,17.70
2008,07,16,00,39,17.70
2008,07,16,00,40,17.70
2008,07,16,00,41,17.70
2008,07,16,00,42,17.70
2008,07,16,00,43,17.70
2008,07,16,00,44,17.70
2008,07,16,00,45,17.80
2008,07,16,00,46,17.80
2008,07,16,00,47,17.80
2008,07,16,00,48,17.80
2008,07,16,00,49,17.80
2008,07,16,00,50,17.80
2008,07,16,00,51,17.80
2008,07,16,00,52,17.80
2008,07,16,00,53,17.80
2008,07,16,00,54,17.70
2008,07,16,00,55,17.70
2008,07,16,00,56,17.70
2008,07,16,00,57,17.70
2008,07,16,00,58,17.70
2008,07,16,00,59,17.70
2008,07,16,01,00,17.60
2008,07,16,01,01,17.70
2008,07,16,01,02,17.70
2008,07,16,01,03,17.70
2008,07,16,01,04,17.70
2008,07,16,01,05,17.70
2008,07,16,01,06,17.70
2008,07,16,01,07,17.70
2008,07,16,01,08,17.70
2008,07,16,01,09,17.70
2008,07,16,01,10,17.70
2008,07,16,01,11,17.70
2008,07,16,01,12,17.60
2008,07,16,01,13,17.60
2008,07,16,01,14,17.60
2008,07,16,01,15,17.60
2008,07,16,01,16,17.60
2008,07,16,01,17,17.60
2008,07,16,01,18,17.50
2008,07,16,01,19,17.50
2008,07,16,01,20,17.50
2008,07,16,01,21,17.40
2008,07,16,01,22,17.40
2008,07,16,01,23,17.40
2008,07,16,01,24,17.30
2008,07,16,01,25,17.30
2008,07,16,01,26,17.30
2008,07,16,01,27,17.30
2008,07,16,01,28,17.30
2008,07,16,01,29,17.20
2008,07,16,01,30,17.20
2008,07,16,01,31,17.20
2008,07,16,01,32,17.20
2008,07,16,01,33,17.20
2008,07,16,01,34,17.10
2008,07,16,01,35,17.10
2008,07,16,01,36,17.10
2008,07,16,01,37,17.10
2008,07,16,01,38,17.10
2008,07,16,01,39,17.00
2008,07,16,01,40,17.00
2008,07,16,01,41,17.00
2008,07,16,01,42,16.90
2008,07,16,01,43,16.90
2008,07,16,01,44,16.90
2008,07,16,01,45,16.90
2008,07,16,01,46,16.90
2008,07,16,01,47,16.90
2008,07,16,01,48,16.90
2008,07,16,01,49,16.90
2008,07,16,01,50,16.90
2008,07,16,01,51,16.80
2008,07,16,01,52,16.80
2008,07,16,01,53,16.80
2008,07,16,01,54,16.80
2008,07,16,01,55,16.80
2008,07,16,01,56,16.80
2008,07,16,01,57,16.80
2008,07,16,01,58,16.80
2008,07,16,01,59,16.80
2008,07,16,02,00,16.70
2008,07,16,02,01,16.70
2008,07,16,02,02,16.70
2008,07,16,02,03,16.70
2008,07,16,02,04,16.60
2008,07,16,02,05,16.60
2008,07,16,02,06,16.60
2008,07,16,02,07,16.60
2008,07,16,02,08,16.60
2008,07,16,02,09,16.60
2008,07,16,02,10,16.50
2008,07,16,02,11,16.50
2008,07,16,02,12,16.50
2008,07,16,02,13,16.50
2008,07,16,02,14,16.50
2008,07,16,02,15,16.50
2008,07,16,02,16,16.50
2008,07,16,02,17,16.50
2008,07,16,02,18,16.50
2008,07,16,02,19,16.50
2008,07,16,02,20,16.50
2008,07,16,02,21,16.40
2008,07,16,02,22,16.40
2008,07,16,02,23,16.40
2008,07,16,02,24,16.40
2008,07,16,02,25,16.40
2008,07,16,02,26,16.30
2008,07,16,02,27,16.30
2008,07,16,02,28,16.30
2008,07,16,02,29,16.30
2008,07,16,02,30,16.30
2008,07,16,02,31,16.30
2008,07,16,02,32,16.20
2008,07,16,02,33,16.30
2008,07,16,02,34,16.30
2008,07,16,02,35,16.30
2008,07,16,02,36,16.30
2008,07,16,02,37,16.20
2008,07,16,02,38,16.20
2008,07,16,02,39,16.20
2008,07,16,02,40,16.20
2008,07,16,02,41,16.20
2008,07,16,02,42,16.10
2008,07,16,02,43,16.10
2008,07,16,02,44,16.10
2008,07,16,02,45,16.10
2008,07,16,02,46,16.10
2008,07,16,02,47,16.10
2008,07,16,02,48,16.10
2008,07,16,02,49,16.10
2008,07,16,02,50,16.10
2008,07,16,02,51,16.10
2008,07,16,02,52,16.10
2008,07,16,02,53,16.00
2008,07,16,02,54,16.00
2008,07,16,02,55,16.00
2008,07,16,02,56,15.90
2008,07,16,02,57,15.90
2008,07,16,02,58,15.90
2008,07,16,02,59,15.90
2008,07,16,03,00,15.80
2008,07,16,03,01,15.80
2008,07,16,03,02,15.80
2008,07,16,03,03,15.80
2008,07,16,03,04,15.80
2008,07,16,03,05,15.80
2008,07,16,03,06,15.80
2008,07,16,03,07,15.80
2008,07,16,03,08,15.80
2008,07,16,03,09,15.80
2008,07,16,03,10,15.80
2008,07,16,03,11,15.80
2008,07,16,03,12,15.70
2008,07,16,03,13,15.70
2008,07,16,03,14,15.70
2008,07,16,03,15,15.70
2008,07,16,03,16,15.70
2008,07,16,03,17,15.70
2008,07,16,03,18,15.70
2008,07,16,03,19,15.60
2008,07,16,03,20,15.60
2008,07,16,03,21,15.60
2008,07,16,03,22,15.60
2008,07,16,03,23,15.60
2008,07,16,03,24,15.70
2008,07,16,03,25,15.70
2008,07,16,03,26,15.70
2008,07,16,03,27,15.70
2008,07,16,03,28,15.70
2008,07,16,03,29,15.70
2008,07,16,03,30,15.70
2008,07,16,03,31,15.70
2008,07,16,03,32,15.80
2008,07,16,03,33,15.80
2008,07,16,03,34,15.80
2008,07,16,03,35,15.80
2008,07,16,03,36,15.80
2008,07,16,03,37,15.80
2008,07,16,03,38,15.80
2008,07,16,03,39,15.80
2008,07,16,03,40,15.80
2008,07,16,03,41,15.80
2008,07,16,03,42,15.80
2008,07,16,03,43,15.80
2008,07,16,03,44,15.80
2008,07,16,03,45,15.90
2008,07,16,03,46,15.90
2008,07,16,03,47,15.90
2008,07,16,03,48,15.90
2008,07,16,03,49,15.90
2008,07,16,03,50,16.00
2008,07,16,03,51,16.00
2008,07,16,03,52,15.90
2008,07,16,03,53,15.90
2008,07,16,03,54,15.90
2008,07,16,03,55,15.90
2008,07,16,03,56,15.90
2008,07,16,03,57,15.90
2008,07,16,03,58,15.80
2008,07,16,03,59,15.80
2008,07,16,04,00,15.80
2008,07,16,04,01,15.80
2008,07,16,04,02,15.80
2008,07,16,04,03,15.80
2008,07,16,04,04,15.70
2008,07,16,04,05,15.70
2008,07,16,04,06,15.70
2008,07,16,04,07,15.70
2008,07,16,04,08,15.70
2008,07,16,04,09,15.70
2008,07,16,04,10,15.70
2008,07,16,04,11,15.70
2008,07,16,04,12,15.60
2008,07,16,04,13,15.70
2008,07,16,04,14,15.60
2008,07,16,04,15,15.60
2008,07,16,04,16,15.60
2008,07,16,04,17,15.60
2008,07,16,04,18,15.60
2008,07,16,04,19,15.60
2008,07,16,04,20,15.60
2008,07,16,04,21,15.60
2008,07,16,04,22,15.60
2008,07,16,04,23,15.60
2008,07,16,04,24,15.60
2008,07,16,04,25,15.50
2008,07,16,04,26,15.50
2008,07,16,04,27,15.50
2008,07,16,04,28,15.50
2008,07,16,04,29,15.50
2008,07,16,04,30,15.40
2008,07,16,04,31,15.40
2008,07,16,04,32,15.40
2008,07,16,04,33,15.40
2008,07,16,04,34,15.30
2008,07,16,04,35,15.20
2008,07,16,04,36,15.20
2008,07,16,04,37,15.10
2008,07,16,04,38,15.00
2008,07,16,04,39,15.00
2008,07,16,04,40,15.00
2008,07,16,04,41,15.00
2008,07,16,04,42,15.00
2008,07,16,04,43,15.00
2008,07,16,04,44,15.00
2008,07,16,04,45,14.90
2008,07,16,04,46,14.80
2008,07,16,04,47,14.80
2008,07,16,04,48,14.80
2008,07,16,04,49,14.70
2008,07,16,04,50,14.70
2008,07,16,04,51,14.70
2008,07,16,04,52,14.70
2008,07,16,04,53,14.70
2008,07,16,04,54,14.60
2008,07,16,04,55,14.60
2008,07,16,04,56,14.60
2008,07,16,04,57,14.60
2008,07,16,04,58,14.60
2008,07,16,04,59,14.60
2008,07,16,05,00,14.60
2008,07,16,05,01,14.60
2008,07,16,05,02,14.50
2008,07,16,05,03,14.50
2008,07,16,05,04,14.50
2008,07,16,05,05,14.50
2008,07,16,05,06,14.40
2008,07,16,05,07,14.40
2008,07,16,05,08,14.40
2008,07,16,05,09,14.40
2008,07,16,05,10,14.40
2008,07,16,05,11,14.30
2008,07,16,05,12,14.30
2008,07,16,05,13,14.30
2008,07,16,05,14,14.30
2008,07,16,05,15,14.30
2008,07,16,05,16,14.20
2008,07,16,05,17,14.20
2008,07,16,05,18,14.20
2008,07,16,05,19,14.20
2008,07,16,05,20,14.10
2008,07,16,05,21,14.10
2008,07,16,05,22,14.10
2008,07,16,05,23,14.10
2008,07,16,05,24,14.10
2008,07,16,05,25,14.00
2008,07,16,05,26,14.00
2008,07,16,05,27,14.00
2008,07,16,05,28,13.90
2008,07,16,05,29,13.90
2008,07,16,05,30,13.90
2008,07,16,05,31,13.90
2008,07,16,05,32,13.80
2008,07,16,05,33,13.80
2008,07,16,05,34,13.80
2008,07,16,05,35,13.80
2008,07,16,05,36,13.80
2008,07,16,05,37,13.80
2008,07,16,05,38,13.80
2008,07,16,05,39,13.80
2008,07,16,05,40,13.80
2008,07,16,05,41,13.80
2008,07,16,05,42,13.80
2008,07,16,05,43,13.80
2008,07,16,05,44,13.80
2008,07,16,05,45,13.80
2008,07,16,05,46,13.80
2008,07,16,05,47,13.80
2008,07,16,05,48,13.80
2008,07,16,05,49,13.80
2008,07,16,05,50,13.80
2008,07,16,05,51,13.80
2008,07,16,05,52,13.80
2008,07,16,05,53,13.80
2008,07,16,05,54,13.80
2008,07,16,05,55,13.80
2008,07,16,05,56,13.80
2008,07,16,05,57,13.80
2008,07,16,05,58,13.80
2008,07,16,05,59,13.80
2008,07,16,06,00,13.80
2008,07,16,06,01,13.80
2008,07,16,06,02,13.80
2008,07,16,06,03,13.80
2008,07,16,06,04,13.90
2008,07,16,06,05,13.90
2008,07,16,06,06,13.90
2008,07,16,06,07,14.00
2008,07,16,06,08,14.00
2008,07,16,06,09,14.10
2008,07,16,06,10,14.10
2008,07,16,06,11,14.10
2008,07,16,06,12,14.20
2008,07,16,06,13,14.20
2008,07,16,06,14,14.20
2008,07,16,06,15,14.30
2008,07,16,06,16,14.30
2008,07,16,06,17,14.30
2008,07,16,06,18,14.30
2008,07,16,06,19,14.40
2008,07,16,06,20,14.40
2008,07,16,06,21,14.40
2008,07,16,06,22,14.40
2008,07,16,06,23,14.40
2008,07,16,06,24,14.40
2008,07,16,06,25,14.40
2008,07,16,06,26,14.50
2008,07,16,06,27,14.50
2008,07,16,06,28,14.50
2008,07,16,06,29,14.50
2008,07,16,06,30,14.50
2008,07,16,06,31,14.50
2008,07,16,06,32,14.50
2008,07,16,06,33,14.50
2008,07,16,06,34,14.50
2008,07,16,06,35,14.40
2008,07,16,06,36,14.40
2008,07,16,06,37,14.40
2008,07,16,06,38,14.40
2008,07,16,06,39,14.40
2008,07,16,06,40,14.40
2008,07,16,06,41,14.40
2008,07,16,06,42,14.40
2008,07,16,06,43,14.40
2008,07,16,06,44,14.40
2008,07,16,06,45,14.40
2008,07,16,06,46,14.40
2008,07,16,06,47,14.40
2008,07,16,06,48,14.40
2008,07,16,06,49,14.50
2008,07,16,06,50,14.50
2008,07,16,06,51,14.60
2008,07,16,06,52,14.60
2008,07,16,06,53,14.60
2008,07,16,06,54,14.60
2008,07,16,06,55,14.70
2008,07,16,06,56,14.70
2008,07,16,06,57,14.70
2008,07,16,06,58,14.70
2008,07,16,06,59,14.70
2008,07,16,07,00,14.70
2008,07,16,07,01,14.70
2008,07,16,07,02,14.70
2008,07,16,07,03,14.70
2008,07,16,07,04,14.70
2008,07,16,07,05,14.70
2008,07,16,07,06,14.70
2008,07,16,07,07,14.70
2008,07,16,07,08,14.60
2008,07,16,07,09,14.60
2008,07,16,07,10,14.60
2008,07,16,07,11,14.60
2008,07,16,07,12,14.60
2008,07,16,07,13,14.60
2008,07,16,07,14,14.60
2008,07,16,07,15,14.60
2008,07,16,07,16,14.60
2008,07,16,07,17,14.60
2008,07,16,07,18,14.60
2008,07,16,07,19,14.60
2008,07,16,07,20,14.60
2008,07,16,07,21,14.60
2008,07,16,07,22,14.70
2008,07,16,07,23,14.70
2008,07,16,07,24,14.70
2008,07,16,07,25,14.70
2008,07,16,07,26,14.70
2008,07,16,07,27,14.70
2008,07,16,07,28,14.80
2008,07,16,07,29,14.80
2008,07,16,07,30,14.80
2008,07,16,07,31,14.80
2008,07,16,07,32,14.70
2008,07,16,07,33,14.70
2008,07,16,07,34,14.70
2008,07,16,07,35,14.70
2008,07,16,07,36,14.70
2008,07,16,07,37,14.70
2008,07,16,07,38,14.80
2008,07,16,07,39,14.80
2008,07,16,07,40,14.80
2008,07,16,07,41,14.80
2008,07,16,07,42,14.80
2008,07,16,07,43,14.80
2008,07,16,07,44,14.80
2008,07,16,07,45,14.80
2008,07,16,07,46,14.80
2008,07,16,07,47,14.90
2008,07,16,07,48,14.90
2008,07,16,07,49,14.90
2008,07,16,07,50,15.00
2008,07,16,07,51,15.00
2008,07,16,07,52,15.00
2008,07,16,07,53,14.90
2008,07,16,07,54,14.90
2008,07,16,07,55,14.90
2008,07,16,07,56,14.90
2008,07,16,07,57,14.90
2008,07,16,07,58,15.00
2008,07,16,07,59,15.00
2008,07,16,08,00,15.00
2008,07,16,08,01,15.00
2008,07,16,08,02,15.00
2008,07,16,08,03,15.00
2008,07,16,08,04,15.00
2008,07,16,08,05,15.10
2008,07,16,08,06,15.10
2008,07,16,08,07,15.30
2008,07,16,08,08,15.30
2008,07,16,08,09,15.40
2008,07,16,08,10,15.40
2008,07,16,08,11,15.30
2008,07,16,08,12,15.30
2008,07,16,08,13,15.30
2008,07,16,08,14,15.20
2008,07,16,08,15,15.20
2008,07,16,08,16,15.20
2008,07,16,08,17,15.30
2008,07,16,08,18,15.30
2008,07,16,08,19,15.30
2008,07,16,08,20,15.30
2008,07,16,08,21,15.30
2008,07,16,08,22,15.30
2008,07,16,08,23,15.30
2008,07,16,08,24,15.40
2008,07,16,08,25,15.40
2008,07,16,08,26,15.40
2008,07,16,08,27,15.40
2008,07,16,08,28,15.50
2008,07,16,08,29,15.50
2008,07,16,08,30,15.40
2008,07,16,08,31,15.40
2008,07,16,08,32,15.30
2008,07,16,08,33,15.30
2008,07,16,08,34,15.40
2008,07,16,08,35,15.40
2008,07,16,08,36,15.50
2008,07,16,08,37,15.50
2008,07,16,08,38,15.60
2008,07,16,08,39,15.60
2008,07,16,08,40,15.60
2008,07,16,08,41,15.70
2008,07,16,08,42,15.70
2008,07,16,08,43,15.80
2008,07,16,08,44,15.90
2008,07,16,08,45,16.00
2008,07,16,08,46,16.10
2008,07,16,08,47,16.20
2008,07,16,08,48,16.20
2008,07,16,08,49,16.10
2008,07,16,08,50,16.10
2008,07,16,08,51,16.00
2008,07,16,08,52,16.00
2008,07,16,08,53,16.00
2008,07,16,08,54,16.10
2008,07,16,08,55,16.10
2008,07,16,08,56,16.20
2008,07,16,08,57,16.20
2008,07,16,08,58,16.20
2008,07,16,08,59,16.30
2008,07,16,09,00,16.30
2008,07,16,09,01,16.30
2008,07,16,09,02,16.30
2008,07,16,09,03,16.30
2008,07,16,09,04,16.30
2008,07,16,09,05,16.40
2008,07,16,09,06,16.50
2008,07,16,09,07,16.60
2008,07,16,09,08,16.60
2008,07,16,09,09,16.50
2008,07,16,09,10,16.50
2008,07,16,09,11,16.60
2008,07,16,09,12,16.60
2008,07,16,09,13,16.70
2008,07,16,09,14,16.70
2008,07,16,09,15,16.70
2008,07,16,09,16,16.60
2008,07,16,09,17,16.60
2008,07,16,09,18,16.50
2008,07,16,09,19,16.40
2008,07,16,09,20,16.40
2008,07,16,09,21,16.50
2008,07,16,09,22,16.50
2008,07,16,09,23,16.50
2008,07,16,09,24,16.50
2008,07,16,09,25,16.50
2008,07,16,09,26,16.50
2008,07,16,09,27,16.50
2008,07,16,09,28,16.60
2008,07,16,09,29,16.60
2008,07,16,09,30,16.60
2008,07,16,09,31,16.70
2008,07,16,09,32,16.80
2008,07,16,09,33,16.70
2008,07,16,09,34,16.60
2008,07,16,09,35,16.50
2008,07,16,09,36,16.40
2008,07,16,09,37,16.30
2008,07,16,09,38,16.30
2008,07,16,09,39,16.20
2008,07,16,09,40,16.20
2008,07,16,09,41,16.20
2008,07,16,09,42,16.20
2008,07,16,09,43,16.30
2008,07,16,09,44,16.40
2008,07,16,09,45,16.50
2008,07,16,09,46,16.50
2008,07,16,09,47,16.50
2008,07,16,09,48,16.50
2008,07,16,09,49,16.50
2008,07,16,09,50,16.50
2008,07,16,09,51,16.60
2008,07,16,09,52,16.70
2008,07,16,09,53,16.80
2008,07,16,09,54,16.80
2008,07,16,09,55,16.80
2008,07,16,09,56,16.90
2008,07,16,09,57,17.00
2008,07,16,09,58,17.20
2008,07,16,09,59,17.20
2008,07,16,10,00,17.20
2008,07,16,10,01,17.30
2008,07,16,10,02,17.20
2008,07,16,10,03,17.20
2008,07,16,10,04,17.20
2008,07,16,10,05,17.10
2008,07,16,10,06,17.00
2008,07,16,10,07,16.90
2008,07,16,10,08,16.70
2008,07,16,10,09,16.60
2008,07,16,10,10,16.60
2008,07,16,10,11,16.60
2008,07,16,10,12,16.60
2008,07,16,10,13,16.50
2008,07,16,10,14,16.40
2008,07,16,10,15,16.40
2008,07,16,10,16,16.40
2008,07,16,10,17,16.40
2008,07,16,10,18,16.50
2008,07,16,10,19,16.60
2008,07,16,10,20,16.70
2008,07,16,10,21,16.70
2008,07,16,10,22,16.70
2008,07,16,10,23,16.80
2008,07,16,10,24,16.80
2008,07,16,10,25,17.00
2008,07,16,10,26,17.10
2008,07,16,10,27,17.20
2008,07,16,10,28,17.30
2008,07,16,10,29,17.50
2008,07,16,10,30,17.50
2008,07,16,10,31,17.50
2008,07,16,10,32,17.60
2008,07,16,10,33,17.60
2008,07,16,10,34,17.60
2008,07,16,10,35,17.70
2008,07,16,10,36,17.70
2008,07,16,10,37,17.70
2008,07,16,10,38,17.70
2008,07,16,10,39,17.70
2008,07,16,10,40,17.70
2008,07,16,10,41,17.60
2008,07,16,10,42,17.50
2008,07,16,10,43,17.40
2008,07,16,10,44,17.30
2008,07,16,10,45,17.20
2008,07,16,10,46,17.20
2008,07,16,10,47,17.20
2008,07,16,10,48,17.20
2008,07,16,10,49,17.20
2008,07,16,10,50,17.30
2008,07,16,10,51,17.30
2008,07,16,10,52,17.30
2008,07,16,10,53,17.40
2008,07,16,10,54,17.50
2008,07,16,10,55,17.60
2008,07,16,10,56,17.60
2008,07,16,10,57,17.60
2008,07,16,10,58,17.70
2008,07,16,10,59,17.80
2008,07,16,11,00,17.90
2008,07,16,11,01,18.10
2008,07,16,11,02,18.10
2008,07,16,11,03,18.20
2008,07,16,11,04,18.10
2008,07,16,11,05,18.00
2008,07,16,11,06,17.90
2008,07,16,11,07,17.70
2008,07,16,11,08,17.80
2008,07,16,11,09,17.80
2008,07,16,11,10,17.80
2008,07,16,11,11,17.80
2008,07,16,11,12,17.90
2008,07,16,11,13,17.90
2008,07,16,11,14,17.90
2008,07,16,11,15,18.00
2008,07,16,11,16,18.00
2008,07,16,11,17,17.90
2008,07,16,11,18,17.90
2008,07,16,11,19,17.90
2008,07,16,11,20,17.80
2008,07,16,11,21,17.70
2008,07,16,11,22,17.70
2008,07,16,11,23,17.70
2008,07,16,11,24,17.70
2008,07,16,11,25,17.80
2008,07,16,11,26,17.80
2008,07,16,11,27,18.00
2008,07,16,11,28,18.10
2008,07,16,11,29,18.20
2008,07,16,11,30,18.20
2008,07,16,11,31,18.20
2008,07,16,11,32,18.30
2008,07,16,11,33,18.50
2008,07,16,11,34,18.60
2008,07,16,11,35,18.70
2008,07,16,11,36,18.80
2008,07,16,11,37,18.80
2008,07,16,11,38,18.70
2008,07,16,11,39,18.60
2008,07,16,11,40,18.60
2008,07,16,11,41,18.60
2008,07,16,11,42,18.70
2008,07,16,11,43,18.80
2008,07,16,11,44,18.90
2008,07,16,11,45,18.80
2008,07,16,11,46,18.80
2008,07,16,11,47,18.80
2008,07,16,11,48,18.70
2008,07,16,11,49,18.80
2008,07,16,11,50,18.80
2008,07,16,11,51,18.70
2008,07,16,11,52,18.80
2008,07,16,11,53,18.80
2008,07,16,11,54,18.80
2008,07,16,11,55,18.90
2008,07,16,11,56,19.00
2008,07,16,11,57,19.10
2008,07,16,11,58,19.10
2008,07,16,11,59,19.30
2008,07,16,12,00,19.40
2008,07,16,12,01,19.50
2008,07,16,12,02,19.50
2008,07,16,12,03,19.50
2008,07,16,12,04,19.50
2008,07,16,12,05,19.50
2008,07,16,12,06,19.50
2008,07,16,12,07,19.60
2008,07,16,12,08,19.60
2008,07,16,12,09,19.60
2008,07,16,12,10,19.40
2008,07,16,12,11,19.40
2008,07,16,12,12,19.40
2008,07,16,12,13,19.60
2008,07,16,12,14,19.70
2008,07,16,12,15,19.70
2008,07,16,12,16,19.80
2008,07,16,12,17,19.90
2008,07,16,12,18,19.90
2008,07,16,12,19,19.70
2008,07,16,12,20,19.50
2008,07,16,12,21,19.30
2008,07,16,12,22,19.30
2008,07,16,12,23,19.30
2008,07,16,12,24,19.30
2008,07,16,12,25,19.30
2008,07,16,12,26,19.30
2008,07,16,12,27,19.30
2008,07,16,12,28,19.50
2008,07,16,12,29,19.50
2008,07,16,12,30,19.60
2008,07,16,12,31,19.70
2008,07,16,12,32,19.80
2008,07,16,12,33,19.90
2008,07,16,12,34,19.90
2008,07,16,12,35,19.90
2008,07,16,12,36,19.90
2008,07,16,12,37,19.90
2008,07,16,12,38,19.90
2008,07,16,12,39,19.90
2008,07,16,12,40,19.90
2008,07,16,12,41,20.10
2008,07,16,12,42,20.20
2008,07,16,12,43,20.40
2008,07,16,12,44,20.40
2008,07,16,12,45,20.40
2008,07,16,12,46,20.40
2008,07,16,12,47,20.40
2008,07,16,12,48,20.50
2008,07,16,12,49,20.50
2008,07,16,12,50,20.50
2008,07,16,12,51,20.50
2008,07,16,12,52,20.40
2008,07,16,12,53,20.40
2008,07,16,12,54,20.40
2008,07,16,12,55,20.40
2008,07,16,12,56,20.40
2008,07,16,12,57,20.40
2008,07,16,12,58,20.40
2008,07,16,12,59,20.50
2008,07,16,13,00,20.40
2008,07,16,13,01,20.30
2008,07,16,13,02,20.30
2008,07,16,13,03,20.20
2008,07,16,13,04,20.20
2008,07,16,13,05,20.10
2008,07,16,13,06,20.00
2008,07,16,13,07,19.90
2008,07,16,13,08,19.80
2008,07,16,13,09,19.70
2008,07,16,13,10,19.80
2008,07,16,13,11,19.80
2008,07,16,13,12,19.90
2008,07,16,13,13,20.00
2008,07,16,13,14,20.10
2008,07,16,13,15,20.30
2008,07,16,13,16,20.30
2008,07,16,13,17,20.30
2008,07,16,13,18,20.30
2008,07,16,13,19,20.30
2008,07,16,13,20,20.40
2008,07,16,13,21,20.40
2008,07,16,13,22,20.50
2008,07,16,13,23,20.60
2008,07,16,13,24,20.70
2008,07,16,13,25,20.80
2008,07,16,13,26,20.90
2008,07,16,13,27,21.00
2008,07,16,13,28,21.00
2008,07,16,13,29,21.20
2008,07,16,13,30,21.20
2008,07,16,13,31,21.20
2008,07,16,13,32,21.20
2008,07,16,13,33,21.30
2008,07,16,13,34,21.20
2008,07,16,13,35,21.10
2008,07,16,13,36,21.00
2008,07,16,13,37,20.90
2008,07,16,13,38,20.80
2008,07,16,13,39,20.90
2008,07,16,13,40,20.90
2008,07,16,13,41,21.00
2008,07,16,13,42,21.10
2008,07,16,13,43,21.20
2008,07,16,13,44,21.40
2008,07,16,13,45,21.50
2008,07,16,13,46,21.60
2008,07,16,13,47,21.70
2008,07,16,13,48,21.70
2008,07,16,13,49,21.70
2008,07,16,13,50,21.60
2008,07,16,13,51,21.50
2008,07,16,13,52,21.40
2008,07,16,13,53,21.40
2008,07,16,13,54,21.40
2008,07,16,13,55,21.50
2008,07,16,13,56,21.60
2008,07,16,13,57,21.60
2008,07,16,13,58,21.60
2008,07,16,13,59,21.70
2008,07,16,14,00,21.80
2008,07,16,14,01,21.80
2008,07,16,14,02,21.80
2008,07,16,14,03,21.90
2008,07,16,14,04,21.80
2008,07,16,14,05,21.80
2008,07,16,14,06,21.90
2008,07,16,14,07,21.90
2008,07,16,14,08,21.90
2008,07,16,14,09,22.00
2008,07,16,14,10,22.00
2008,07,16,14,11,22.00
2008,07,16,14,12,22.00
2008,07,16,14,13,21.90
2008,07,16,14,14,21.90
2008,07,16,14,15,22.00
2008,07,16,14,16,22.00
2008,07,16,14,17,22.00
2008,07,16,14,18,22.00
2008,07,16,14,19,22.10
2008,07,16,14,20,22.20
2008,07,16,14,21,22.20
2008,07,16,14,22,22.30
2008,07,16,14,23,22.30
2008,07,16,14,24,22.30
2008,07,16,14,25,22.30
2008,07,16,14,26,22.30
2008,07,16,14,27,22.30
2008,07,16,14,28,22.30
2008,07,16,14,29,22.20
2008,07,16,14,30,22.20
2008,07,16,14,31,22.20
2008,07,16,14,32,22.10
2008,07,16,14,33,22.10
2008,07,16,14,34,22.00
2008,07,16,14,35,21.80
2008,07,16,14,36,21.80
2008,07,16,14,37,21.80
2008,07,16,14,38,21.90
2008,07,16,14,39,21.90
2008,07,16,14,40,21.90
2008,07,16,14,41,21.90
2008,07,16,14,42,21.90
2008,07,16,14,43,21.80
2008,07,16,14,44,21.80
2008,07,16,14,45,21.80
2008,07,16,14,46,21.90
2008,07,16,14,47,21.90
2008,07,16,14,48,21.80
2008,07,16,14,49,21.80
2008,07,16,14,50,21.80
2008,07,16,14,51,21.80
2008,07,16,14,52,21.90
2008,07,16,14,53,22.00
2008,07,16,14,54,22.00
2008,07,16,14,55,22.10
2008,07,16,14,56,22.10
2008,07,16,14,57,22.20
2008,07,16,14,58,22.30
2008,07,16,14,59,22.40
2008,07,16,15,00,22.40
2008,07,16,15,01,22.50
2008,07,16,15,02,22.60
2008,07,16,15,03,22.70
2008,07,16,15,04,22.80
2008,07,16,15,05,22.70
2008,07,16,15,06,22.70
2008,07,16,15,07,22.80
2008,07,16,15,08,22.80
2008,07,16,15,09,22.80
2008,07,16,15,10,22.80
2008,07,16,15,11,22.80
2008,07,16,15,12,22.70
2008,07,16,15,13,22.70
2008,07,16,15,14,22.80
2008,07,16,15,15,22.80
2008,07,16,15,16,22.80
2008,07,16,15,17,22.70
2008,07,16,15,18,22.70
2008,07,16,15,19,22.60
2008,07,16,15,20,22.60
2008,07,16,15,21,22.70
2008,07,16,15,22,22.60
2008,07,16,15,23,22.60
2008,07,16,15,24,22.60
2008,07,16,15,25,22.60
2008,07,16,15,26,22.60
2008,07,16,15,27,22.60
2008,07,16,15,28,22.60
2008,07,16,15,29,22.60
2008,07,16,15,30,22.60
2008,07,16,15,31,22.60
2008,07,16,15,32,22.50
2008,07,16,15,33,22.40
2008,07,16,15,34,22.40
2008,07,16,15,35,22.40
2008,07,16,15,36,22.50
2008,07,16,15,37,22.60
2008,07,16,15,38,22.60
2008,07,16,15,39,22.70
2008,07,16,15,40,22.80
2008,07,16,15,41,22.90
2008,07,16,15,42,23.00
2008,07,16,15,43,23.10
2008,07,16,15,44,23.10
2008,07,16,15,45,23.00
2008,07,16,15,46,22.90
2008,07,16,15,47,22.90
2008,07,16,15,48,22.90
2008,07,16,15,49,22.80
2008,07,16,15,50,22.80
2008,07,16,15,51,22.80
2008,07,16,15,52,22.80
2008,07,16,15,53,22.90
2008,07,16,15,54,23.00
2008,07,16,15,55,23.10
2008,07,16,15,56,23.00
2008,07,16,15,57,23.00
2008,07,16,15,58,23.10
2008,07,16,15,59,23.10
2008,07,16,16,00,23.10
2008,07,16,16,01,23.10
2008,07,16,16,02,23.00
2008,07,16,16,03,22.90
2008,07,16,16,04,22.80
2008,07,16,16,05,22.80
2008,07,16,16,06,22.70
2008,07,16,16,07,22.70
2008,07,16,16,08,22.70
2008,07,16,16,09,22.60
2008,07,16,16,10,22.60
2008,07,16,16,11,22.60
2008,07,16,16,12,22.60
2008,07,16,16,13,22.70
2008,07,16,16,14,22.70
2008,07,16,16,15,22.80
2008,07,16,16,16,22.90
2008,07,16,16,17,23.10
2008,07,16,16,18,23.20
2008,07,16,16,19,23.40
2008,07,16,16,20,23.60
2008,07,16,16,21,23.80
2008,07,16,16,22,24.00
2008,07,16,16,23,24.20
2008,07,16,16,24,24.30
2008,07,16,16,25,24.50
2008,07,16,16,26,24.60
2008,07,16,16,27,24.70
2008,07,16,16,28,24.80
2008,07,16,16,29,24.80
2008,07,16,16,30,24.80
2008,07,16,16,31,24.90
2008,07,16,16,32,25.00
2008,07,16,16,33,25.10
2008,07,16,16,34,25.10
2008,07,16,16,35,25.00
2008,07,16,16,36,25.00
2008,07,16,16,37,25.00
2008,07,16,16,38,24.90
2008,07,16,16,39,24.90
2008,07,16,16,40,24.90
2008,07,16,16,41,25.00
2008,07,16,16,42,25.00
2008,07,16,16,43,25.00
2008,07,16,16,44,25.00
2008,07,16,16,45,25.10
2008,07,16,16,46,25.20
2008,07,16,16,47,25.20
2008,07,16,16,48,25.30
2008,07,16,16,49,25.40
2008,07,16,16,50,25.40
2008,07,16,16,51,25.30
2008,07,16,16,52,25.20
2008,07,16,16,53,25.00
2008,07,16,16,54,25.00
2008,07,16,16,55,25.00
2008,07,16,16,56,25.10
2008,07,16,16,57,25.10
2008,07,16,16,58,25.10
2008,07,16,16,59,25.10
2008,07,16,17,00,25.10
2008,07,16,17,01,25.00
2008,07,16,17,02,25.00
2008,07,16,17,03,24.90
2008,07,16,17,04,24.90
2008,07,16,17,05,24.80
2008,07,16,17,06,24.80
2008,07,16,17,07,24.80
2008,07,16,17,08,24.70
2008,07,16,17,09,24.70
2008,07,16,17,10,24.80
2008,07,16,17,11,24.80
2008,07,16,17,12,24.80
2008,07,16,17,13,24.90
2008,07,16,17,14,24.90
2008,07,16,17,15,25.00
2008,07,16,17,16,25.10
2008,07,16,17,17,25.10
2008,07,16,17,18,25.00
2008,07,16,17,19,25.00